Stuttgart, AR

1:02 PM CDT on June 23, 2017 (GMT -0500)
Stuttgart Municipal

Weather History for KSGT - December, 2012

Change the Weather History Date:

Wednesday, December 26, 2012

  Actual Average Record
Temperature  
Mean Temperature 30 °F -  
Max Temperature 33 °F 46 °F 78 °F (2015)
Min Temperature 28 °F 32 °F 21 °F (1998)
Degree Days  
Heating Degree Days 34    
Moisture  
Dew Point 25 °F    
Average Humidity 79    
Maximum Humidity 87    
Minimum Humidity 69    
Precipitation  
Precipitation 0.00 in - - ()
Sea Level Pressure  
Sea Level Pressure 30.06 in    
Wind  
Wind Speed 18 mph (WNW)    
Max Wind Speed 26 mph    
Max Gust Speed 33 mph    
Visibility 9 miles    
Events      
Averages and records for this station are not official NWS values.
T = Trace of Precipitation, MM = Missing Value Source: NWS Daily Summary

Daily Weather History Graph

Daily Weather History Graph

Search for Another Location

Airport or City:

Trip Planner

Search our weather history database for the weather conditions in past years. The results will help you decide how hot, cold, wet, or windy it might be!

Date:

Astronomy

Dec. 26, 2012 Rise Set
Actual Time 7:11 AM CST 5:02 PM CST
Civil Twilight 6:43 AM CST 5:30 PM CST
Nautical Twilight 6:12 AM CST 6:02 PM CST
Astronomical Twilight 5:41 AM CST 6:32 PM CST
Moon 3:55 PM CST (12/26) 5:36 AM CST (12/26)
Length of Visible Light 10h 46m
Length of Day
9h 50m
Waxing Gibbous, 97% of the Moon is Illuminated
Dec 26
Waxing Gibbous
Dec 28
Full
Jan 4
Last Quarter
Jan 11
New
Jan 18
First Quarter

Hourly Weather History & Observations

Time (CST) Temp. Windchill Dew Point Humidity Pressure Visibility Wind Dir Wind Speed Gust Speed Precip Events Conditions
12:15 AM 32.0 °F 18.9 °F 28.4 °F 87% 29.74 in 2.0 mi NNW 24.2 mph - N/A   Overcast
12:35 AM 32.0 °F 18.9 °F 28.4 °F 87% 29.76 in 3.0 mi NW 24.2 mph 29.9 mph N/A   Overcast
12:55 AM 32.0 °F 19.5 °F 28.4 °F 87% 29.77 in 3.0 mi NW 21.9 mph 29.9 mph N/A   Overcast
1:15 AM 32.0 °F 18.9 °F 26.6 °F 80% 29.78 in 8.0 mi NW 24.2 mph 33.4 mph N/A   Overcast
1:35 AM 32.0 °F 18.4 °F 26.6 °F 80% 29.79 in 10.0 mi NW 26.5 mph 31.1 mph N/A   Overcast
2:15 AM 32.0 °F 19.2 °F 26.6 °F 80% 29.82 in 5.0 mi NW 23.0 mph 27.6 mph N/A   Overcast
2:35 AM 32.0 °F 18.9 °F 26.6 °F 80% 29.83 in 10.0 mi NW 24.2 mph 28.8 mph N/A   Overcast
2:55 AM 32.0 °F 19.2 °F 26.6 °F 80% 29.84 in 8.0 mi NW 23.0 mph 29.9 mph N/A   Overcast
3:15 AM 32.0 °F 20.1 °F 26.6 °F 80% 29.86 in 10.0 mi WNW 19.6 mph - N/A   Overcast
3:35 AM 32.0 °F 20.8 °F 26.6 °F 80% 29.88 in 8.0 mi NW 17.3 mph - N/A   Overcast
4:15 AM 30.2 °F 18.1 °F 26.6 °F 86% 29.90 in 10.0 mi WNW 18.4 mph 23.0 mph N/A   Overcast
4:35 AM 30.2 °F 18.9 °F 26.6 °F 86% 29.91 in 10.0 mi WNW 16.1 mph 23.0 mph N/A   Overcast
4:55 AM 30.2 °F 17.4 °F 24.8 °F 80% 29.92 in 8.0 mi WNW 20.7 mph 26.5 mph N/A   Overcast
5:15 AM 30.2 °F 17.8 °F 24.8 °F 80% 29.93 in 10.0 mi NW 19.6 mph 25.3 mph N/A   Overcast
5:35 AM 30.2 °F 17.4 °F 24.8 °F 80% 29.93 in 9.0 mi NW 20.7 mph 26.5 mph N/A   Overcast
5:55 AM 30.2 °F 17.8 °F 24.8 °F 80% 29.95 in 10.0 mi NW 19.6 mph - N/A   Overcast
6:15 AM 30.2 °F 18.1 °F 24.8 °F 80% 29.96 in 10.0 mi NW 18.4 mph 24.2 mph N/A   Overcast
6:55 AM 30.2 °F 18.5 °F 24.8 °F 80% 29.98 in 10.0 mi NW 17.3 mph - N/A   Mostly Cloudy
7:15 AM 30.2 °F 19.3 °F 23.0 °F 75% 30.00 in 10.0 mi WNW 15.0 mph - N/A   Mostly Cloudy
7:35 AM 30.2 °F 18.5 °F 23.0 °F 75% 30.01 in 10.0 mi WNW 17.3 mph - N/A   Overcast
7:55 AM 30.2 °F 18.9 °F 23.0 °F 75% 30.03 in 10.0 mi WNW 16.1 mph - N/A   Overcast
8:15 AM 30.2 °F 17.8 °F 23.0 °F 75% 30.04 in 10.0 mi WNW 19.6 mph 23.0 mph N/A   Overcast
8:35 AM 30.2 °F 18.9 °F 23.0 °F 75% 30.05 in 10.0 mi WNW 16.1 mph - N/A   Overcast
8:55 AM 30.2 °F 17.8 °F 21.2 °F 69% 30.06 in 10.0 mi WNW 19.6 mph - N/A   Scattered Clouds
9:15 AM 30.2 °F 17.4 °F 21.2 °F 69% 30.08 in 10.0 mi WNW 20.7 mph 26.5 mph N/A   Clear
9:35 AM 30.2 °F 18.1 °F 21.2 °F 69% 30.09 in 10.0 mi NW 18.4 mph - N/A   Clear
9:55 AM 30.2 °F 17.1 °F 23.0 °F 75% 30.10 in 10.0 mi WNW 21.9 mph - N/A   Clear
10:15 AM 30.2 °F 18.9 °F 23.0 °F 75% 30.12 in 10.0 mi NW 16.1 mph - N/A   Partly Cloudy
10:35 AM 30.2 °F 17.8 °F 23.0 °F 75% 30.12 in 10.0 mi NW 19.6 mph - N/A   Scattered Clouds
10:55 AM 30.2 °F 18.1 °F 23.0 °F 75% 30.13 in 10.0 mi NW 18.4 mph - N/A   Partly Cloudy
11:15 AM 30.2 °F 17.8 °F 21.2 °F 69% 30.11 in 10.0 mi NW 19.6 mph - N/A   Scattered Clouds
11:35 AM 30.2 °F 19.3 °F 23.0 °F 75% 30.11 in 10.0 mi NW 15.0 mph - N/A   Mostly Cloudy
11:55 AM 30.2 °F 18.9 °F 24.8 °F 80% 30.11 in 10.0 mi NW 16.1 mph - N/A   Overcast
12:35 PM 32.0 °F 21.6 °F 24.8 °F 75% 30.11 in 10.0 mi NW 15.0 mph - N/A   Overcast
12:55 PM 32.0 °F 21.6 °F 24.8 °F 75% 30.12 in 10.0 mi NW 15.0 mph - N/A   Overcast
1:15 PM 32.0 °F 22.1 °F 24.8 °F 75% 30.11 in 10.0 mi NW 13.8 mph - N/A   Overcast
1:35 PM 32.0 °F 21.6 °F 24.8 °F 75% 30.11 in 10.0 mi NW 15.0 mph - N/A   Overcast
1:55 PM 33.8 °F 24.3 °F 24.8 °F 70% 30.10 in 10.0 mi NW 13.8 mph - N/A   Overcast
2:15 PM 33.8 °F 24.3 °F 24.8 °F 70% 30.11 in 10.0 mi NW 13.8 mph - N/A   Overcast
2:35 PM 33.8 °F 25.3 °F 24.8 °F 70% 30.13 in 10.0 mi WNW 11.5 mph - N/A   Overcast
2:55 PM 33.8 °F 24.8 °F 24.8 °F 70% 30.14 in 10.0 mi WNW 12.7 mph - N/A   Overcast
3:15 PM 33.8 °F 25.8 °F 24.8 °F 70% 30.13 in 10.0 mi WNW 10.4 mph - N/A   Overcast
3:55 PM 33.8 °F 26.4 °F 26.6 °F 75% 30.15 in 10.0 mi WNW 9.2 mph - N/A   Overcast
4:15 PM 33.8 °F 27.7 °F 24.8 °F 70% 30.15 in 10.0 mi WNW 6.9 mph - N/A   Scattered Clouds
4:55 PM 33.8 °F 26.4 °F 26.6 °F 75% 30.16 in 10.0 mi West 9.2 mph - N/A   Clear
5:15 PM 33.8 °F 27.0 °F 26.6 °F 75% 30.16 in 10.0 mi WSW 8.1 mph - N/A   Clear
5:35 PM 32.0 °F 25.6 °F 26.6 °F 80% 30.18 in 10.0 mi WSW 6.9 mph - N/A   Clear
6:15 PM 30.2 °F 24.3 °F 26.6 °F 86% 30.18 in 10.0 mi WSW 5.8 mph - N/A   Clear
6:35 PM 30.2 °F 24.3 °F 26.6 °F 86% 30.18 in 10.0 mi WSW 5.8 mph - N/A   Clear
6:55 PM 30.2 °F 23.4 °F 24.8 °F 80% 30.18 in 10.0 mi WSW 6.9 mph - N/A   Clear
7:15 PM 30.2 °F 24.3 °F 26.6 °F 86% 30.19 in 10.0 mi SW 5.8 mph - N/A   Clear
7:35 PM 30.2 °F 24.3 °F 26.6 °F 86% 30.19 in 10.0 mi SW 5.8 mph - N/A   Clear
7:55 PM 30.2 °F 26.7 °F 26.6 °F 86% 30.19 in 10.0 mi WSW 3.5 mph - N/A   Clear
8:15 PM 30.2 °F 24.3 °F 26.6 °F 86% 30.20 in 10.0 mi WSW 5.8 mph - N/A   Clear
8:35 PM 30.2 °F 22.6 °F 26.6 °F 86% 30.21 in 10.0 mi WSW 8.1 mph - N/A   Clear
8:55 PM 30.2 °F 23.4 °F 26.6 °F 86% 30.21 in 9.0 mi WSW 6.9 mph - N/A   Clear
9:15 PM 30.2 °F 22.6 °F 26.6 °F 86% 30.22 in 9.0 mi West 8.1 mph - N/A   Clear
9:35 PM 30.2 °F 21.9 °F 26.6 °F 86% 30.22 in 8.0 mi West 9.2 mph - N/A   Clear
9:55 PM 30.2 °F 23.4 °F 26.6 °F 86% 30.22 in 8.0 mi West 6.9 mph - N/A   Clear
10:15 PM 30.2 °F 25.4 °F 26.6 °F 86% 30.21 in 7.0 mi WSW 4.6 mph - N/A   Clear
10:55 PM 30.2 °F - 26.6 °F 86% 30.20 in 5.0 mi Calm Calm - N/A   Clear
11:15 PM 28.4 °F - 24.8 °F 86% 30.20 in 5.0 mi Calm Calm - N/A   Clear
11:35 PM 28.4 °F 23.3 °F 24.8 °F 86% 30.17 in 5.0 mi East 4.6 mph - N/A   Clear
11:55 PM 28.4 °F 24.6 °F 24.8 °F 86% 30.17 in 5.0 mi ESE 3.5 mph - N/A   Clear